• In Belarus
  • List of Countries
  • For 7 days
  • Water Temperature
  • Weather Map
  • Weather Widgets
  • user-avatar
    Login

    Hourly Weather Middlesbrough

    Today, 5 June, Friday

    Time Temperature Precipitation Wind Pressure Humidity
    00:00 +8°C° 0.7 mm 2 mps 746 mmHg 93%
    01:00 +8°C° 0.6 mm 3 mps 745 mmHg 93%
    02:00 +7°C° 0.6 mm 4 mps 745 mmHg 92%
    03:00 +6°C° 0.6 mm 5 mps 744 mmHg 92%
    04:00 +5°C° 0.2 mm 6 mps 744 mmHg 90%
    05:00 +5°C° 0.2 mm 6 mps 744 mmHg 88%
    06:00 +5°C° 0.2 mm 7 mps 744 mmHg 86%
    07:00 +6°C° 0.1 mm 7 mps 744 mmHg 80%
    08:00 +8°C° 0.1 mm 7 mps 744 mmHg 73%
    09:00 +9°C° 0.1 mm 7 mps 744 mmHg 66%
    10:00 +9°C° 0.3 mm 7 mps 744 mmHg 66%
    11:00 +10°C° 0.3 mm 6 mps 743 mmHg 66%
    12:00 +11°C° 0.3 mm 6 mps 743 mmHg 66%
    13:00 +11°C° 0.4 mm 6 mps 743 mmHg 67%
    14:00 +11°C° 0.4 mm 7 mps 742 mmHg 68%
    15:00 +11°C° 0.4 mm 7 mps 742 mmHg 69%
    16:00 +10°C° 0.3 mm 7 mps 741 mmHg 70%
    17:00 +10°C° 0.3 mm 8 mps 741 mmHg 71%
    18:00 +9°C° 0.3 mm 8 mps 740 mmHg 72%
    19:00 +7°C° 0.2 mm 9 mps 740 mmHg 74%
    20:00 +6°C° 0.2 mm 9 mps 740 mmHg 76%
    21:00 +5°C° 0.2 mm 10 mps 740 mmHg 78%
    22:00 +5°C° 0.5 mm 9 mps 739 mmHg 83%
    23:00 +5°C° 0.5 mm 9 mps 738 mmHg 87%

    Tomorrow, 6 June, Saturday

    Time Temperature Precipitation Wind Pressure Humidity
    00:00 +5°C° 0.5 mm 9 mps 738 mmHg 91%
    01:00 +6°C° 0.4 mm 8 mps 737 mmHg 91%
    02:00 +6°C° 0.4 mm 8 mps 737 mmHg 92%
    03:00 +8°C° 0.4 mm 7 mps 737 mmHg 93%
    04:00 +7°C° 0.2 mm 9 mps 737 mmHg 91%
    05:00 +7°C° 0.2 mm 11 mps 737 mmHg 90%
    06:00 +7°C° 0.2 mm 12 mps 737 mmHg 88%
    07:00 +7°C° 0.2 mm 12 mps 738 mmHg 86%
    08:00 +8°C° 0.2 mm 12 mps 739 mmHg 83%
    09:00 +9°C° 0.2 mm 12 mps 740 mmHg 80%
    10:00 +9°C° 0.4 mm 11 mps 740 mmHg 79%
    11:00 +11°C° 0.4 mm 11 mps 741 mmHg 78%
    12:00 +11°C° 0.4 mm 11 mps 742 mmHg 76%
    13:00 +12°C° 0.2 mm 10 mps 743 mmHg 74%
    14:00 +12°C° 0.2 mm 9 mps 744 mmHg 71%
    15:00 +13°C° 0.2 mm 9 mps 744 mmHg 69%
    16:00 +12°C° 0.1 mm 8 mps 745 mmHg 72%
    17:00 +12°C° 0.1 mm 7 mps 745 mmHg 75%
    18:00 +11°C° 0.1 mm 6 mps 746 mmHg 78%
    19:00 +10°C° 0 mm 5 mps 747 mmHg 83%
    20:00 +10°C° 0 mm 4 mps 747 mmHg 87%
    21:00 +8°C° 0 mm 4 mps 748 mmHg 91%
    22:00 +9°C° 0 mm 3 mps 748 mmHg 92%
    23:00 +8°C° 0 mm 3 mps 748 mmHg 92%

    Day after tomorrow, 7 June, Sunday

    Time Temperature Precipitation Wind Pressure Humidity
    00:00 +8°C° 0 mm 3 mps 749 mmHg 92%
    01:00 +8°C° 0 mm 3 mps 749 mmHg 90%
    02:00 +8°C° 0 mm 3 mps 749 mmHg 89%
    03:00 +8°C° 0 mm 3 mps 750 mmHg 87%
    04:00 +8°C° 0.1 mm 3 mps 750 mmHg 88%
    05:00 +9°C° 0.1 mm 3 mps 750 mmHg 89%
    06:00 +10°C° 0.1 mm 4 mps 750 mmHg 91%
    07:00 +9°C° 0.4 mm 5 mps 751 mmHg 92%
    08:00 +9°C° 0.4 mm 6 mps 751 mmHg 92%
    09:00 +10°C° 0.4 mm 6 mps 752 mmHg 93%
    10:00 +10°C° 0.8 mm 7 mps 752 mmHg 94%
    11:00 +10°C° 0.8 mm 8 mps 753 mmHg 94%
    12:00 +10°C° 0.8 mm 9 mps 753 mmHg 94%
    13:00 +10°C° 0.3 mm 9 mps 754 mmHg 93%
    14:00 +10°C° 0.3 mm 9 mps 754 mmHg 92%
    15:00 +10°C° 0.3 mm 9 mps 755 mmHg 91%
    16:00 +10°C° 0 mm 9 mps 755 mmHg 89%
    17:00 +10°C° 0 mm 9 mps 756 mmHg 87%
    18:00 +10°C° 0 mm 8 mps 757 mmHg 85%
    19:00 +9°C° 0 mm 8 mps 757 mmHg 85%
    20:00 +9°C° 0 mm 7 mps 758 mmHg 84%
    21:00 +9°C° 0 mm 7 mps 759 mmHg 83%
    22:00 +8°C° 0 mm 7 mps 759 mmHg 83%
    23:00 +8°C° 0 mm 6 mps 759 mmHg 82%

    8 June, Monday

    Time Temperature Precipitation Wind Pressure Humidity
    00:00 +8°C° 0 mm 6 mps 760 mmHg 81%
    01:00 +7°C° 0 mm 6 mps 760 mmHg 84%
    02:00 +5°C° 0 mm 6 mps 760 mmHg 86%
    03:00 +5°C° 0 mm 5 mps 760 mmHg 89%
    04:00 +4°C° 0 mm 6 mps 761 mmHg 85%
    05:00 +5°C° 0 mm 6 mps 761 mmHg 81%
    06:00 +7°C° 0 mm 6 mps 761 mmHg 76%
    07:00 +8°C° 0 mm 6 mps 762 mmHg 74%
    08:00 +9°C° 0 mm 6 mps 762 mmHg 71%
    09:00 +9°C° 0 mm 6 mps 762 mmHg 68%
    10:00 +10°C° 0 mm 6 mps 763 mmHg 66%
    11:00 +10°C° 0 mm 6 mps 763 mmHg 65%
    12:00 +11°C° 0 mm 6 mps 763 mmHg 64%
    13:00 +11°C° 0 mm 6 mps 763 mmHg 64%
    14:00 +11°C° 0 mm 6 mps 763 mmHg 65%
    15:00 +11°C° 0 mm 6 mps 763 mmHg 65%
    16:00 +10°C° 0 mm 6 mps 764 mmHg 67%
    17:00 +10°C° 0 mm 5 mps 764 mmHg 69%
    18:00 +9°C° 0 mm 5 mps 764 mmHg 70%
    19:00 +8°C° 0 mm 5 mps 764 mmHg 74%
    20:00 +7°C° 0 mm 4 mps 765 mmHg 78%
    21:00 +6°C° 0 mm 4 mps 765 mmHg 81%
    22:00 +6°C° 0 mm 4 mps 765 mmHg 83%
    23:00 +5°C° 0 mm 4 mps 766 mmHg 84%

    9 June, Tuesday

    Time Temperature Precipitation Wind Pressure Humidity
    00:00 +5°C° 0 mm 3 mps 766 mmHg 86%
    01:00 +5°C° 0 mm 3 mps 766 mmHg 86%
    02:00 +5°C° 0 mm 4 mps 766 mmHg 85%
    03:00 +5°C° 0 mm 4 mps 766 mmHg 85%
    04:00 +6°C° 0 mm 4 mps 766 mmHg 83%
    05:00 +7°C° 0 mm 4 mps 766 mmHg 81%
    06:00 +8°C° 0 mm 5 mps 766 mmHg 80%
    07:00 +9°C° 0 mm 5 mps 767 mmHg 76%
    08:00 +9°C° 0 mm 5 mps 767 mmHg 73%
    09:00 +10°C° 0 mm 5 mps 767 mmHg 69%
    10:00 +12°C° 0 mm 5 mps 767 mmHg 68%
    11:00 +12°C° 0 mm 5 mps 767 mmHg 66%
    12:00 +12°C° 0 mm 4 mps 768 mmHg 65%
    13:00 +13°C° 0 mm 4 mps 768 mmHg 64%
    14:00 +13°C° 0 mm 4 mps 768 mmHg 64%
    15:00 +13°C° 0 mm 4 mps 768 mmHg 63%
    16:00 +12°C° 0 mm 4 mps 768 mmHg 65%
    17:00 +12°C° 0 mm 4 mps 768 mmHg 67%
    18:00 +11°C° 0 mm 4 mps 768 mmHg 68%
    19:00 +10°C° 0 mm 3 mps 769 mmHg 73%
    20:00 +8°C° 0 mm 3 mps 769 mmHg 79%
    21:00 +7°C° 0 mm 2 mps 769 mmHg 84%
    22:00 +6°C° 0 mm 2 mps 769 mmHg 85%
    23:00 +6°C° 0 mm 2 mps 769 mmHg 85%

    10 June, Wednesday

    Time Temperature Precipitation Wind Pressure Humidity
    00:00 +6°C° 0 mm 2 mps 770 mmHg 86%
    01:00 +6°C° 0 mm 2 mps 770 mmHg 86%
    02:00 +6°C° 0 mm 2 mps 769 mmHg 85%
    03:00 +6°C° 0 mm 2 mps 769 mmHg 85%
    04:00 +7°C° 0 mm 2 mps 769 mmHg 82%
    05:00 +8°C° 0 mm 2 mps 770 mmHg 80%
    06:00 +9°C° 0 mm 2 mps 770 mmHg 78%
    07:00 +10°C° 0 mm 3 mps 770 mmHg 76%
    08:00 +11°C° 0 mm 3 mps 770 mmHg 75%
    09:00 +12°C° 0 mm 4 mps 770 mmHg 73%
    10:00 +12°C° 0 mm 4 mps 770 mmHg 72%
    11:00 +13°C° 0 mm 4 mps 770 mmHg 71%
    12:00 +13°C° 0 mm 4 mps 770 mmHg 70%
    13:00 +14°C° 0 mm 4 mps 770 mmHg 69%
    14:00 +14°C° 0 mm 4 mps 770 mmHg 68%
    15:00 +14°C° 0 mm 4 mps 769 mmHg 68%
    16:00 +14°C° 0 mm 4 mps 770 mmHg 70%
    17:00 +13°C° 0 mm 4 mps 770 mmHg 73%
    18:00 +13°C° 0 mm 4 mps 770 mmHg 76%
    19:00 +11°C° 0 mm 4 mps 770 mmHg 81%
    20:00 +10°C° 0 mm 3 mps 770 mmHg 87%
    21:00 +9°C° 0 mm 3 mps 770 mmHg 92%
    22:00 +8°C° 0 mm 3 mps 770 mmHg 93%
    23:00 +8°C° 0 mm 3 mps 770 mmHg 93%
    Show more